Wind_Speed
5 7 7 7 7 7 7 8 9 9 9 9 9 9 9 9 9 8 7 7 7 7 6 6 5 5 5 5 5 5 5 5 6 6 6 6 6 6 5 5 6 7 8
4 6 7 8 8 8 8 7 8 8 8 8 9 9 8 8 7 7 7 7 6 6 5 5 5 5 5 5 5 5 5 5 5 5 6 6 6 6 5 5 6 7 8
3 5 7 8 9 9 9 8 8 8 8 8 8 8 7 7 6 6 6 6 6 5 5 5 4 5 5 5 5 5 4 4 5 5 5 6 6 6 5 5 7 7 8
2 4 6 8 9 10 10 10 8 8 8 8 8 7 6 6 6 6 6 5 5 5 5 4 4 4 5 5 4 5 5 5 4 4 5 5 5 5 5 5 7 8 8
2 4 5 7 9 10 10 11 10 9 8 8 7 7 6 6 5 5 5 5 5 4 4 4 4 4 4 4 4 4 4 4 4 4 4 4 5 5 5 5 7 8 8
2 4 5 7 9 10 10 11 10 10 9 8 7 6 6 6 5 5 4 4 4 4 4 4 3 3 3 4 4 3 4 4 4 4 4 4 5 5 5 6 7 7 7
3 4 5 7 8 10 11 11 11 10 10 9 8 6 5 5 5 4 4 3 3 3 3 3 3 3 3 3 3 3 3 3 4 4 4 4 4 5 5 6 7 7 7
4 5 5 7 8 9 11 12 12 12 11 10 8 7 5 5 5 4 3 3 3 3 3 3 3 3 3 3 3 3 3 3 3 4 4 4 4 5 6 6 7 7 7
6 6 6 7 8 9 11 13 13 12 12 11 9 8 6 6 5 4 3 3 3 2 2 3 3 3 2 2 2 3 3 3 4 4 4 4 4 5 6 7 7 6 6
7 7 7 8 9 10 12 13 13 12 12 11 10 9 8 6 5 4 3 3 2 2 2 3 3 2 2 1 2 2 2 3 4 4 4 4 4 5 6 7 7 6 6
7 8 8 8 10 12 12 13 13 13 13 12 11 10 8 7 6 4 3 3 2 2 2 2 2 2 2 1 1 1 2 3 4 4 4 5 5 5 6 7 7 7 6
8 8 8 9 11 13 13 14 14 14 14 13 11 10 9 7 5 4 3 3 2 1 1 2 2 2 1 1 1 1 2 3 4 4 4 5 5 5 6 7 7 7 7
10 9 9 10 11 13 13 14 15 15 14 13 12 11 9 8 6 5 4 3 3 1 1 2 2 1 1 1 1 1 2 3 3 3 4 4 5 5 6 6 7 7 7
12 10 10 11 12 13 13 14 15 16 15 13 12 11 10 8 6 5 4 4 3 2 1 2 2 1 1 1 1 1 2 2 3 3 4 4 4 5 6 6 6 6 7
12 10 10 11 12 12 14 14 15 16 16 14 13 12 11 9 7 6 5 4 3 3 2 2 2 2 1 1 1 1 1 1 2 3 3 4 4 4 6 6 6 6 7
10 9 10 11 13 13 13 14 14 16 16 15 14 13 12 10 8 7 6 5 3 3 3 2 2 2 2 2 1 1 1 1 2 2 3 4 4 4 5 6 6 6 7
9 9 8 10 12 12 13 14 14 16 17 16 15 14 13 11 9 8 6 6 4 4 3 3 2 2 2 2 2 1 1 1 1 2 2 4 4 5 5 6 6 6 6
9 9 8 9 12 13 13 14 15 16 16 16 15 14 13 11 10 9 8 6 5 4 4 4 3 3 2 2 2 2 2 1 1 2 2 2 3 4 4 5 5 6 6
10 9 9 9 12 13 13 14 15 16 16 16 16 15 13 12 11 10 9 7 6 5 5 4 4 3 3 2 2 2 2 1 1 1 1 1 1 3 3 4 4 4 5
9 8 8 10 11 13 13 14 15 16 16 16 16 15 14 13 12 11 10 9 7 7 6 5 5 4 4 3 3 2 2 2 1 1 0 0 0 1 2 3 3 4 4
8 7 6 8 9 11 12 14 15 15 16 16 16 15 15 14 13 12 11 10 9 8 8 7 6 5 4 4 3 3 2 2 1 1 1 0 0 0 1 1 2 3 4
7 5 4 5 8 11 12 13 13 14 15 15 15 16 15 14 13 12 12 11 9 9 9 8 7 6 5 4 4 3 3 2 1 1 1 1 1 1 1 2 3 4 5
6 4 3 4 7 10 11 12 13 13 14 14 14 14 15 14 13 13 12 11 10 10 10 9 7 7 6 5 4 4 3 3 3 2 2 2 2 2 3 4 4 5 5
5 3 2 3 6 8 10 11 12 12 13 14 14 14 14 14 13 13 12 12 12 11 11 10 9 8 8 7 6 6 5 5 4 4 4 4 4 5 5 6 6 6 6
5 3 2 2 5 7 9 11 12 12 13 13 13 13 14 14 13 13 12 12 13 12 12 11 11 10 9 9 8 7 7 7 7 6 6 6 7 7 7 7 8 8 9
3 2 2 2 3 5 8 9 10 12 12 12 13 14 14 14 14 14 13 13 13 13 13 13 12 12 11 10 10 9 9 9 9 9 9 9 10 9 9 10 10 10 11
Wind_Direction
156 158 159 162 167 170 172 168 162 154 148 142 135 127 119 110 104 98 91 86 83 82 86 89 90 89 92 102 107 108 108 109 113 115 117 119 119 118 121 121 124 128 127
167 168 168 168 172 178 182 179 169 161 158 153 144 133 122 113 106 100 92 85 82 83 87 90 93 89 94 107 113 115 117 117 118 118 119 119 119 119 121 123 128 132 130
177 181 181 179 181 184 189 190 182 174 167 160 150 139 127 118 110 102 95 88 84 85 89 90 90 92 100 108 113 119 123 123 123 121 122 123 124 126 127 125 134 136 137
192 194 196 193 192 195 197 199 195 185 177 168 158 146 134 124 115 105 98 94 90 89 91 93 92 95 104 109 114 119 125 129 132 130 126 131 134 133 130 130 135 140 140
221 208 205 201 200 200 200 201 200 191 185 177 167 155 143 133 123 110 103 101 96 93 94 93 94 99 106 109 111 119 125 131 133 135 133 136 144 144 140 139 140 142 144
253 224 214 210 209 207 204 202 199 196 193 184 178 166 156 144 133 121 111 108 103 98 94 90 97 102 107 112 116 127 134 136 140 144 147 146 150 154 153 152 150 149 150
276 248 229 221 219 215 208 203 199 199 197 191 185 179 169 155 140 132 122 117 114 104 94 90 101 102 112 118 125 138 144 139 147 157 160 158 157 163 163 161 162 159 160
299 274 249 234 227 222 214 207 202 202 201 198 192 184 177 165 150 143 139 130 122 108 94 90 100 107 121 130 131 138 149 155 157 163 168 168 170 176 176 172 168 167 168
304 284 260 241 231 225 216 209 204 203 204 201 197 191 185 178 171 161 155 145 128 107 92 90 97 108 122 132 132 146 158 162 162 161 164 171 180 186 186 181 173 174 175
304 286 267 251 235 224 217 210 208 209 208 205 201 196 191 188 187 179 165 154 129 105 88 87 95 110 113 120 125 145 175 172 170 172 173 177 184 188 187 183 180 182 184
300 282 267 252 236 228 220 214 214 212 209 206 202 196 193 191 192 189 170 159 143 113 92 94 98 107 125 135 152 166 198 185 180 185 189 192 192 192 190 189 187 190 189
301 282 263 251 238 228 220 216 218 216 211 207 202 196 192 195 194 190 173 164 154 128 100 112 111 120 143 179 212 202 193 185 185 193 198 196 197 199 197 195 194 194 194
306 286 262 249 239 232 225 221 218 218 212 208 204 201 198 199 197 193 180 175 168 164 144 131 125 126 134 161 181 192 203 199 192 201 204 203 206 209 208 204 203 203 202
311 293 267 253 241 230 227 223 220 218 213 212 207 203 198 200 199 194 189 188 190 186 161 147 132 126 138 158 181 198 207 213 212 213 214 218 221 223 219 216 213 216 216
307 292 271 250 235 234 230 225 223 220 215 214 209 204 200 199 197 196 198 203 206 197 175 161 142 147 168 177 182 192 208 212 217 224 227 226 223 226 221 218 219 226 228
305 291 272 251 236 231 226 224 222 220 217 215 211 206 203 200 199 198 202 203 204 203 194 187 165 163 179 180 182 196 208 225 234 240 232 230 230 231 228 225 228 231 230
305 293 276 249 240 232 226 224 224 219 218 216 212 208 205 204 204 203 202 200 200 202 201 194 175 166 166 164 166 175 197 226 242 246 242 238 236 238 238 238 239 241 240
306 291 274 248 232 229 227 223 221 217 216 212 208 205 205 205 206 203 199 199 197 199 199 193 179 165 163 169 171 172 184 204 219 238 251 244 233 237 238 241 243 245 245
302 291 274 249 230 224 223 221 218 216 213 208 206 206 206 207 205 201 199 199 196 196 197 194 186 178 175 180 181 172 170 172 180 219 260 272 247 242 240 242 248 256 248
304 295 279 250 233 224 219 215 211 214 213 209 208 209 211 211 208 202 200 201 201 200 197 194 188 183 177 176 170 160 150 145 151 141 182 247 243 252 242 239 251 259 257
308 293 281 250 231 214 211 211 211 213 212 211 210 211 212 213 208 207 205 206 207 202 197 194 193 187 180 178 172 167 161 154 152 144 127 68 32 324 289 255 253 261 262
315 303 285 241 218 209 206 206 208 214 214 213 211 212 210 209 207 207 206 208 208 204 202 200 198 194 193 191 190 187 182 182 197 223 267 302 312 306 310 300 282 278 273
317 298 288 241 215 208 207 210 212 212 210 212 210 209 209 207 207 208 210 209 207 206 205 201 200 202 205 201 202 206 206 208 225 247 259 276 286 293 298 300 292 287 285
322 309 293 246 223 213 212 211 211 209 207 207 207 207 206 206 205 206 210 211 210 208 206 207 208 213 214 217 223 227 232 237 243 249 258 270 280 286 289 290 288 285 282
320 307 284 240 224 218 213 209 211 210 210 209 211 211 209 208 210 211 212 215 216 215 213 214 217 220 222 225 229 232 238 243 250 257 265 271 276 279 282 284 283 282 280
296 275 235 219 219 210 205 207 210 209 211 211 211 212 213 216 217 217 217 220 221 219 219 221 224 226 227 229 234 239 245 250 256 262 267 272 275 276 278 281 281 279 278
Height
5885 5886 5886 5887 5887 5888 5889 5890 5890 5891 5891 5892 5892 5892 5892 5893 5893 5893 5893 5893 5893 5893 5893 5893 5893 5893 5893 5892 5893 5893 5893 5892 5892 5892 5892 5892 5892 5893 5893 5893 5893 5893 5893
5885 5885 5886 5887 5887 5888 5889 5890 5890 5891 5891 5892 5892 5892 5892 5892 5893 5893 5893 5893 5893 5893 5893 5893 5893 5893 5893 5893 5893 5893 5893 5893 5893 5893 5893 5893 5893 5893 5894 5894 5894 5894 5894
5885 5885 5886 5886 5887 5888 5889 5889 5890 5891 5891 5892 5892 5892 5892 5892 5893 5893 5893 5893 5893 5893 5893 5893 5893 5893 5893 5893 5893 5893 5893 5893 5893 5893 5893 5893 5893 5894 5894 5894 5894 5895 5895
5884 5884 5885 5886 5887 5887 5888 5889 5890 5890 5891 5892 5892 5892 5892 5892 5893 5893 5893 5893 5893 5893 5893 5893 5893 5893 5893 5893 5893 5893 5893 5893 5894 5894 5894 5894 5894 5894 5895 5895 5895 5896 5896
5883 5883 5884 5885 5886 5887 5887 5888 5889 5890 5891 5891 5891 5891 5892 5892 5893 5893 5893 5893 5893 5893 5893 5893 5893 5893 5893 5893 5893 5894 5894 5893 5894 5894 5894 5894 5895 5895 5895 5896 5896 5896 5897
5882 5882 5883 5883 5885 5885 5886 5887 5888 5889 5890 5890 5891 5891 5892 5892 5892 5893 5893 5893 5893 5893 5893 5893 5893 5893 5893 5893 5893 5894 5894 5894 5894 5894 5894 5895 5895 5895 5896 5896 5897 5897 5898
5882 5881 5882 5882 5883 5884 5885 5886 5887 5888 5889 5890 5890 5891 5892 5892 5892 5892 5893 5893 5893 5893 5893 5893 5893 5893 5893 5893 5893 5894 5894 5894 5894 5894 5895 5895 5896 5896 5896 5897 5897 5898 5899
5880 5880 5880 5880 5881 5882 5883 5884 5885 5887 5888 5889 5890 5890 5891 5892 5892 5892 5892 5893 5893 5893 5893 5893 5893 5893 5893 5893 5893 5894 5894 5894 5894 5894 5895 5895 5896 5896 5897 5897 5898 5899 5899
5879 5879 5878 5879 5879 5880 5881 5883 5884 5885 5887 5888 5889 5890 5891 5891 5892 5892 5892 5892 5893 5893 5893 5892 5892 5892 5893 5893 5893 5894 5894 5894 5894 5895 5895 5895 5896 5896 5897 5897 5898 5899 5900
5877 5877 5876 5877 5877 5878 5879 5881 5882 5884 5885 5887 5888 5889 5890 5890 5891 5891 5891 5892 5892 5892 5892 5892 5892 5893 5893 5893 5893 5894 5894 5894 5894 5895 5895 5895 5896 5896 5897 5897 5898 5899 5900
5875 5874 5874 5874 5875 5876 5877 5879 5880 5882 5884 5885 5886 5887 5888 5889 5889 5890 5891 5892 5892 5892 5892 5892 5892 5892 5893 5893 5893 5893 5893 5894 5894 5895 5895 5895 5896 5896 5897 5897 5898 5899 5900
5873 5872 5872 5873 5873 5874 5876 5877 5879 5881 5882 5883 5885 5886 5887 5888 5889 5890 5890 5891 5891 5892 5892 5892 5892 5892 5893 5893 5893 5893 5893 5894 5894 5894 5895 5895 5896 5896 5897 5897 5898 5899 5899
5871 5870 5870 5870 5871 5872 5874 5876 5878 5879 5880 5882 5884 5885 5886 5887 5888 5889 5890 5890 5891 5891 5892 5892 5892 5892 5892 5893 5893 5893 5893 5893 5894 5894 5894 5895 5896 5896 5897 5897 5898 5898 5899
5869 5867 5868 5868 5869 5870 5872 5873 5875 5877 5879 5881 5882 5884 5885 5886 5888 5889 5889 5890 5890 5891 5891 5891 5892 5892 5892 5892 5893 5893 5893 5893 5893 5894 5894 5895 5895 5896 5896 5897 5898 5898 5899
5866 5865 5865 5865 5866 5868 5869 5871 5873 5875 5877 5879 5881 5882 5884 5886 5887 5888 5889 5889 5890 5890 5891 5891 5891 5892 5892 5892 5892 5893 5893 5893 5893 5893 5894 5894 5894 5895 5895 5896 5897 5897 5898
5863 5862 5862 5862 5864 5865 5867 5869 5870 5873 5875 5877 5879 5881 5883 5885 5886 5887 5889 5889 5890 5890 5890 5891 5891 5891 5891 5892 5892 5892 5893 5893 5893 5893 5893 5893 5894 5894 5895 5895 5896 5896 5897
5860 5859 5859 5860 5861 5863 5865 5867 5868 5871 5873 5875 5878 5880 5882 5883 5885 5886 5888 5889 5889 5890 5890 5890 5891 5891 5891 5892 5892 5892 5892 5892 5893 5893 5893 5893 5893 5893 5894 5894 5895 5895 5896
5858 5857 5858 5858 5859 5861 5863 5865 5867 5869 5871 5874 5876 5878 5880 5882 5884 5885 5887 5888 5888 5889 5890 5890 5891 5891 5891 5892 5892 5892 5892 5892 5892 5892 5892 5892 5892 5893 5893 5893 5894 5894 5895
5856 5855 5855 5856 5857 5859 5861 5863 5865 5868 5870 5872 5875 5877 5879 5881 5883 5884 5886 5887 5888 5889 5889 5890 5891 5891 5891 5892 5892 5892 5892 5892 5892 5892 5892 5892 5892 5892 5892 5892 5893 5893 5894
5854 5853 5853 5854 5856 5857 5859 5861 5864 5866 5868 5871 5873 5876 5878 5880 5881 5883 5885 5886 5887 5888 5889 5889 5890 5891 5891 5892 5892 5892 5892 5892 5892 5892 5892 5892 5892 5892 5892 5892 5892 5892 5892
5852 5851 5852 5853 5854 5856 5858 5860 5862 5865 5867 5869 5871 5874 5876 5878 5880 5882 5883 5885 5886 5887 5888 5889 5890 5891 5891 5892 5892 5892 5892 5892 5893 5893 5892 5892 5892 5891 5891 5891 5891 5891 5891
5852 5851 5851 5851 5852 5855 5857 5859 5861 5862 5865 5867 5869 5872 5874 5876 5878 5880 5882 5883 5885 5886 5887 5888 5889 5890 5891 5892 5892 5892 5893 5893 5893 5893 5892 5892 5892 5891 5891 5891 5891 5891 5890
5851 5850 5851 5851 5852 5853 5855 5857 5859 5861 5863 5865 5868 5870 5872 5874 5876 5878 5880 5882 5883 5885 5886 5887 5889 5890 5890 5891 5892 5892 5892 5893 5893 5893 5892 5892 5892 5891 5891 5890 5890 5890 5889
5849 5849 5850 5850 5851 5852 5854 5856 5858 5859 5861 5864 5866 5868 5870 5872 5874 5876 5878 5880 5882 5883 5885 5886 5887 5888 5889 5890 5891 5891 5892 5892 5892 5892 5892 5891 5891 5890 5890 5890 5889 5889 5888
5849 5849 5849 5849 5850 5851 5852 5854 5856 5858 5860 5862 5864 5867 5869 5871 5873 5874 5876 5878 5880 5881 5883 5884 5886 5887 5888 5889 5889 5890 5890 5890 5890 5891 5891 5890 5890 5889 5889 5888 5888 5887 5887
5848 5848 5849 5849 5850 5850 5851 5853 5854 5856 5858 5860 5863 5865 5867 5869 5871 5873 5874 5876 5878 5879 5881 5882 5884 5885 5886 5886 5887 5888 5888 5889 5889 5889 5889 5888 5888 5888 5887 5886 5886 5885 5884